When you browse on this site, cookies collect data to enhance your experience and personalize the content and advertising you see.
Visit our Privacy Policy to learn more. By continuing to use the site, you agree to this use of cookies and data.
  • In Romania
  • List of Countries
  • For 7 days
  • Water Temperature
  • Satellite Maps
  • Weather Map
  • Weather Widgets
  • user-avatar
    Login

    Hourly Weather Smolan

    Today, 18 April, Thursday

    Time Temperature Precipitation Wind Pressure Humidity
    00:00 +3°C° 0.5 mm 0 mps 655 mmHg 89%
    01:00 +3°C° 0.5 mm 0 mps 655 mmHg 90%
    02:00 +3°C° 0 mm 0 mps 655 mmHg 91%
    03:00 +3°C° 0.6 mm 0 mps 655 mmHg 92%
    04:00 +2°C° 0.6 mm 0 mps 655 mmHg 93%
    05:00 +2°C° 0.6 mm 0 mps 656 mmHg 94%
    06:00 +4°C° 0.2 mm 1 mps 656 mmHg 92%
    07:00 +4°C° 0.2 mm 1 mps 656 mmHg 90%
    08:00 +5°C° 0 mm 1 mps 657 mmHg 87%
    09:00 +6°C° 0.3 mm 1 mps 657 mmHg 83%
    10:00 +5°C° 0.3 mm 2 mps 657 mmHg 79%
    11:00 +6°C° 0.3 mm 2 mps 658 mmHg 76%
    12:00 +6°C° 0.5 mm 2 mps 658 mmHg 74%
    13:00 +7°C° 0.5 mm 3 mps 658 mmHg 73%
    14:00 +7°C° 0.5 mm 3 mps 658 mmHg 72%
    15:00 +7°C° 0.6 mm 3 mps 658 mmHg 74%
    16:00 +5°C° 0.6 mm 3 mps 658 mmHg 77%
    17:00 +5°C° 0.6 mm 3 mps 657 mmHg 80%
    18:00 +4°C° 0.6 mm 3 mps 658 mmHg 85%
    19:00 +4°C° 0.6 mm 2 mps 658 mmHg 90%
    20:00 +3°C° 0.6 mm 2 mps 658 mmHg 95%
    21:00 +3°C° 0.5 mm 2 mps 658 mmHg 95%
    22:00 +2°C° 0.5 mm 2 mps 658 mmHg 95%
    23:00 +3°C° 0.5 mm 1 mps 659 mmHg 96%

    Tomorrow, 19 April, Friday

    Time Temperature Precipitation Wind Pressure Humidity
    00:00 +2°C° 0.1 mm 2 mps 659 mmHg 95%
    01:00 +2°C° 0.1 mm 2 mps 659 mmHg 95%
    02:00 +1°C° 0.1 mm 2 mps 659 mmHg 95%
    03:00 -1°C° 0 mm 2 mps 658 mmHg 95%
    04:00 -1°C° 0 mm 2 mps 658 mmHg 94%
    05:00 -2°C° 0 mm 2 mps 657 mmHg 94%
    06:00 -1°C° 0 mm 2 mps 658 mmHg 88%
    07:00 +2°C° 0 mm 2 mps 658 mmHg 82%
    08:00 +4°C° 0 mm 2 mps 659 mmHg 76%
    09:00 +5°C° 0 mm 2 mps 659 mmHg 69%
    10:00 +7°C° 0 mm 2 mps 660 mmHg 63%
    11:00 +8°C° 0 mm 2 mps 660 mmHg 56%
    12:00 +9°C° 0.2 mm 2 mps 660 mmHg 57%
    13:00 +9°C° 0.2 mm 2 mps 659 mmHg 57%
    14:00 +9°C° 0.2 mm 2 mps 659 mmHg 58%
    15:00 +9°C° 0.8 mm 2 mps 658 mmHg 60%
    16:00 +8°C° 0.8 mm 2 mps 658 mmHg 63%
    17:00 +8°C° 0.8 mm 3 mps 657 mmHg 66%
    18:00 +6°C° 0.5 mm 2 mps 657 mmHg 74%
    19:00 +5°C° 0.5 mm 1 mps 656 mmHg 81%
    20:00 +3°C° 0.5 mm 1 mps 656 mmHg 89%
    21:00 +3°C° 1.1 mm 1 mps 656 mmHg 91%
    22:00 +3°C° 1.1 mm 1 mps 657 mmHg 93%
    23:00 +3°C° 1.1 mm 1 mps 657 mmHg 95%

    Day after tomorrow, 20 April, Saturday

    Time Temperature Precipitation Wind Pressure Humidity
    00:00 +2°C° 0.1 mm 2 mps 657 mmHg 95%
    01:00 +1°C° 0.1 mm 2 mps 657 mmHg 95%
    02:00 -1°C° 0.1 mm 2 mps 657 mmHg 94%
    03:00 -1°C° 0 mm 2 mps 657 mmHg 94%
    04:00 -1°C° 0 mm 2 mps 657 mmHg 94%
    05:00 -1°C° 0 mm 3 mps 657 mmHg 94%
    06:00 -1°C° 0.2 mm 3 mps 658 mmHg 92%
    07:00 0°C° 0.2 mm 3 mps 658 mmHg 89%
    08:00 0°C° 0.2 mm 3 mps 659 mmHg 87%
    09:00 0°C° 0.1 mm 4 mps 659 mmHg 79%
    10:00 +1°C° 0.1 mm 4 mps 660 mmHg 71%
    11:00 +3°C° 0.1 mm 4 mps 660 mmHg 63%
    12:00 +4°C° 0.1 mm 4 mps 660 mmHg 61%
    13:00 +4°C° 0.1 mm 4 mps 660 mmHg 59%
    14:00 +5°C° 0.1 mm 4 mps 660 mmHg 57%
    15:00 +5°C° 0.1 mm 4 mps 660 mmHg 58%
    16:00 +4°C° 0.1 mm 4 mps 660 mmHg 59%
    17:00 +4°C° 0.1 mm 3 mps 660 mmHg 61%
    18:00 +2°C° 0 mm 3 mps 659 mmHg 69%
    19:00 +1°C° 0 mm 2 mps 659 mmHg 77%
    20:00 +1°C° 0 mm 1 mps 659 mmHg 86%
    21:00 0°C° 0 mm 1 mps 659 mmHg 85%
    22:00 0°C° 0 mm 1 mps 659 mmHg 84%
    23:00 -1°C° 0 mm 1 mps 659 mmHg 83%

    21 April, Sunday

    Time Temperature Precipitation Wind Pressure Humidity
    00:00 -1°C° 0 mm 1 mps 659 mmHg 81%
    01:00 -1°C° 0 mm 1 mps 659 mmHg 79%
    02:00 -1°C° 0 mm 1 mps 658 mmHg 78%
    03:00 -1°C° 0 mm 1 mps 658 mmHg 76%
    04:00 -1°C° 0 mm 1 mps 658 mmHg 73%
    05:00 -1°C° 0 mm 1 mps 658 mmHg 71%
    06:00 +1°C° 0 mm 1 mps 659 mmHg 64%
    07:00 +3°C° 0 mm 0 mps 659 mmHg 58%
    08:00 +5°C° 0 mm 0 mps 660 mmHg 51%
    09:00 +7°C° 0 mm 0 mps 660 mmHg 49%
    10:00 +9°C° 0 mm 1 mps 661 mmHg 48%
    11:00 +10°C° 0 mm 1 mps 661 mmHg 47%
    12:00 +10°C° 0 mm 1 mps 660 mmHg 52%
    13:00 +9°C° 0 mm 1 mps 660 mmHg 57%
    14:00 +9°C° 0 mm 1 mps 659 mmHg 62%
    15:00 +8°C° 0.2 mm 1 mps 659 mmHg 67%
    16:00 +7°C° 0.2 mm 1 mps 658 mmHg 73%
    17:00 +7°C° 0.2 mm 1 mps 658 mmHg 79%
    18:00 +6°C° 0.1 mm 1 mps 657 mmHg 84%
    19:00 +5°C° 0.1 mm 1 mps 657 mmHg 90%
    20:00 +4°C° 0.1 mm 1 mps 657 mmHg 95%
    21:00 +3°C° 0 mm 1 mps 657 mmHg 95%
    22:00 +3°C° 0 mm 1 mps 657 mmHg 95%
    23:00 +2°C° 0 mm 1 mps 657 mmHg 96%

    22 April, Monday

    Time Temperature Precipitation Wind Pressure Humidity
    00:00 +2°C° 0 mm 1 mps 657 mmHg 95%
    01:00 +2°C° 0 mm 1 mps 657 mmHg 95%
    02:00 +2°C° 0 mm 1 mps 657 mmHg 94%
    03:00 +2°C° 0 mm 1 mps 656 mmHg 94%
    04:00 +1°C° 0 mm 1 mps 656 mmHg 93%
    05:00 +1°C° 0 mm 1 mps 656 mmHg 93%
    06:00 +3°C° 0 mm 1 mps 657 mmHg 86%
    07:00 +5°C° 0 mm 0 mps 658 mmHg 79%
    08:00 +7°C° 0 mm 0 mps 659 mmHg 72%
    09:00 +9°C° 0 mm 1 mps 659 mmHg 69%
    10:00 +10°C° 0 mm 1 mps 659 mmHg 65%
    11:00 +10°C° 0 mm 2 mps 660 mmHg 62%
    12:00 +9°C° 0.1 mm 2 mps 659 mmHg 68%
    13:00 +9°C° 0.1 mm 2 mps 659 mmHg 74%
    14:00 +8°C° 0.1 mm 2 mps 658 mmHg 80%
    15:00 +8°C° 0.1 mm 2 mps 658 mmHg 82%
    16:00 +7°C° 0.1 mm 2 mps 657 mmHg 83%
    17:00 +7°C° 0.1 mm 2 mps 657 mmHg 85%
    18:00 +7°C° 0 mm 1 mps 657 mmHg 89%
    19:00 +6°C° 0 mm 1 mps 657 mmHg 93%
    20:00 +5°C° 0 mm 1 mps 657 mmHg 97%
    21:00 +4°C° 0 mm 1 mps 657 mmHg 96%
    22:00 +4°C° 0 mm 1 mps 657 mmHg 96%
    23:00 +4°C° 0 mm 1 mps 658 mmHg 96%

    23 April, Tuesday

    Time Temperature Precipitation Wind Pressure Humidity
    00:00 +3°C° 0 mm 1 mps 657 mmHg 94%
    01:00 +3°C° 0 mm 1 mps 657 mmHg 93%
    02:00 +3°C° 0 mm 1 mps 657 mmHg 91%
    03:00 +3°C° 0.3 mm 1 mps 657 mmHg 91%
    04:00 +4°C° 0.3 mm 1 mps 658 mmHg 91%
    05:00 +4°C° 0.3 mm 1 mps 658 mmHg 91%
    06:00 +5°C° 0.1 mm 1 mps 658 mmHg 87%
    07:00 +6°C° 0.1 mm 1 mps 658 mmHg 82%
    08:00 +7°C° 0.1 mm 1 mps 659 mmHg 78%
    09:00 +8°C° 0.1 mm 1 mps 659 mmHg 72%
    10:00 +8°C° 0.1 mm 2 mps 659 mmHg 66%
    11:00 +9°C° 0.1 mm 2 mps 660 mmHg 60%
    12:00 +10°C° 0 mm 2 mps 659 mmHg 55%
    13:00 +11°C° 0 mm 3 mps 659 mmHg 50%
    14:00 +12°C° 0 mm 3 mps 659 mmHg 45%
    15:00 +12°C° 0 mm 3 mps 659 mmHg 47%
    16:00 +11°C° 0 mm 3 mps 658 mmHg 49%
    17:00 +10°C° 0 mm 3 mps 658 mmHg 51%
    18:00 +8°C° 0 mm 2 mps 657 mmHg 60%
    19:00 +6°C° 0 mm 2 mps 657 mmHg 68%
    20:00 +5°C° 0 mm 1 mps 656 mmHg 77%
    21:00 +5°C° 0 mm 1 mps 656 mmHg 72%
    22:00 +4°C° 0 mm 1 mps 656 mmHg 67%
    23:00 +4°C° 0 mm 1 mps 656 mmHg 62%
    Show more